Location: Auckland
(36.8670°S, 174.7670°E)
Time: 14:26:50
(UTC+12:00)

Courier 1B Rocket - Pass Details

Date: 20 July 2019
Orbit: 920 x 1202 km, 28.3° (Epoch: 20 August)

Event Time Altitude Azimuth Distance (km) Brightness Sun altitude
Rises 08:54:58 0° 276° (W) 3,916 7.7 13.7°
Reaches altitude 10° 08:58:05 10° 285° (WNW) 2,911 7.2 14.2°
Maximum altitude 09:04:16 33° 346° (NNW) 1,652 6.7 15.1°
Drops below altitude 10° 09:10:05 10° 47° (NE) 2,725 10.3 16.0°
Sets 09:12:55 0° 56° (ENE) 3,634 9.7 16.4°
